Home   Weather   Costa Mesa   Past weeks

Flag for USA Past Weather in Costa Mesa, California, USA — Yesterday and Last 2 Weeks

Now
72 °F

Scattered clouds.


Feels Like: 74 °F
Forecast: 68 / 84 °F
Wind: No wind

Location: John Wayne Airport-Orange County Airport

Current Time: Jul 21, 2017 at 10:06:59 am

Latest Report: Jul 21, 2017 at 8:53 am


Visibility: 8 mi

Pressure: 29.96 "Hg

Humidity: 73%

Dew Point: 63 °F

Location of Costa MesaLocation

Past Weather in Costa Mesa — Graph

°F

Costa Mesa Temperature Yesterday

Maximum temperature yesterday: 81 °F (at 11:53 am)
Minimum temperature yesterday: 68 °F (at 11:53 pm)
Average temperature yesterday: 74 °F

High & Low Weather Summary for the Past Weeks

 TemperatureHumidityPressure
High88 °F (Jul 9, 10:53 am)96% (Jul 7, 4:53 am)30.02 "Hg (Jul 7, 4:53 am)
Low66 °F (Jul 7, 4:53 am)41% (Jul 7, 3:53 pm)29.78 "Hg (Jul 8, 5:53 pm)
Average73 °F75%29.92 "Hg
* Reported Jul 6 8:53 am — Jul 21 8:53 am, Costa Mesa. Weather by CustomWeather, © 2017

Note: Actual official high and low records may vary slightly from our data, if they occured in-between our weather recording intervals... More about our weather records

Advertising

Costa Mesa Weather History for the Previous 24 Hours

Scroll right to see more
 ConditionsComfort  
Time TempWeatherWind HumidityBarometerVisibility
8:53 am
Fri, Jul 21
72 °FScattered clouds.No wind73%29.96 "Hg8 mi
8:14 am71 °FScattered clouds.N/A76%29.96 "Hg7 mi
7:53 am70 °FPartly sunny.No wind76%29.96 "Hg6 mi
6:53 am68 °FPartly sunny.6 mph82%29.94 "Hg6 mi
5:53 am68 °FPassing clouds.5 mph82%29.93 "Hg6 mi
4:53 am68 °FOvercast.6 mph82%29.93 "Hg10 mi
3:53 am68 °FOvercast.3 mph84%29.93 "Hg10 mi
2:53 am68 °FOvercast.6 mph87%29.93 "Hg10 mi
1:53 am68 °FPassing clouds.6 mph87%29.93 "Hg10 mi
1:31 am68 °FPassing clouds.6 mph87%29.94 "Hg10 mi
1:02 am68 °FPassing clouds.6 mph87%29.95 "Hg10 mi
12:53 am68 °FPassing clouds.3 mph87%29.95 "Hg10 mi
11:53 pm
Thu, Jul 20
68 °FClear.6 mph87%29.95 "Hg10 mi
10:53 pm69 °FFog.5 mph87%29.95 "Hg6 mi
9:53 pm70 °FPassing clouds.6 mph84%29.96 "Hg7 mi
8:53 pm71 °FPassing clouds.6 mph81%29.95 "Hg10 mi
7:53 pm71 °FPassing clouds.9 mph84%29.94 "Hg10 mi
6:53 pm74 °FPassing clouds.10 mph74%29.93 "Hg10 mi
5:53 pm76 °FPassing clouds.10 mph64%29.92 "Hg10 mi
4:53 pm77 °FPassing clouds.13 mph62%29.92 "Hg10 mi
3:53 pm80 °FPassing clouds.13 mph52%29.94 "Hg10 mi
2:53 pm81 °FPassing clouds.10 mph51%29.96 "Hg10 mi
1:53 pm81 °FPassing clouds.12 mph53%29.97 "Hg10 mi
12:53 pm81 °FPassing clouds.12 mph56%29.98 "Hg10 mi
11:53 am81 °FPassing clouds.12 mph60%29.99 "Hg10 mi
10:53 am79 °FPassing clouds.6 mph62%30.00 "Hg10 mi
Weather by CustomWeather, © 2017

See weather overviewHow to use our weather pages